COSMOS 2058 (20465 NORAD) Tracking and Keplerian Element Data

This shows tracking and keplerian element data for the satellite.

Feedback or suggestion? Click here.




ElementValue
Catalog20465
NameCOSMOS 2058
Epoch Orbit56643
Epoch Day344.9966958
Epoch Year2018
RAAN86.7958
Inclination82.4905
Eccentricity0.0013959
Argument of Perigee269.1916
Mean Anonmoly90.7707
Mean Motion14.97803415
Decay Rate2.38E-06
L11 20465U 90010A 18344.99669580 .00000238 00000-0 17955-4 0 9993
L22 20465 82.4905 86.7958 0013959 269.1916 90.7707 14.97803415566437

Live tracking and technical data element details for COSMOS 2058 (NORAD 20465). COSMOS 2058 can be tracked NOW for your location showing map with azimuth and elevation plus other details from your city location.

Track the satellite on the map from your city or location and see movement details for azimuth, elevation, latitude, longitude, range, height, and movement on the map or in text.







IsCatalogInMostPopularTable: catalog: 20465, numindb: 54
Update: records affected: 1



GetName: 20465 COSMOS 2058

Hit Count: updated at: Thu, 13 Dec 2018 04:37:12 GMT